Terminal Aerodrome Forecast
Issued by NWS

Home | Current Version | Previous Version | Text Only | Print | Product List | Glossary On
Versions: 1 2 3 4 5 6 7 8 9 10 11 12 13 14
000
FTUS43 KAPX 052320
TAFPLN
TAF
KPLN 052320Z 0600/0624 VRB03KT P6SM SKC
     FM060600 00000KT 3SM BR SKC
     FM061400 19008KT P6SM SKC=

USA.gov is the U.S. government's official web portal to all federal, state and local government web resources and services.